Airfield :
LOGIN :

Register | Disclaimer

   EN    FR    IT 

 










Legend :    VFR   Marginal VFR   IFR   Intensive IFR   Very Intensive IFR
Visi :
Ceiling :
>= 8 km
>= 3000ft
5 to 8 km
1000 to 3000 ft
1500m to 5 km
500 to 1000 ft
800 to 1500m
200 to 500 ft
< 800m
< 200 ft
Symbols :   Thunderstorms  Fog  Heavy snow  Heavy precipitations  Wind > 20 kt
SIGMETs :     Misc.  Thunderstorms  Icing  Turbulence  Mountain Waves  Volcanic Ashes






- Airport Elevation : 915 ft
- IATA code : LUG


LSZA - Lugano

CURRENT METAR :
  • 231850Z AUTO VRB03KT CAVOK 27/20 Q1013

EXPIRED METARs :
  • 231820Z VRB02KT CAVOK 27/19 Q1013 NOSIG
  • 231750Z 27004KT 240V310 9999 FEW060 29/18 Q1013 NOSIG
  • 231720Z 21005KT 190V250 9999 FEW060 30/19 Q1013 NOSIG
  • 231650Z 21004KT 140V250 9999 FEW060 30/19 Q1013 NOSIG

TAF TAF LSZA
Valid from the 23 at 15:00 until the 24 at 00:00 UTC


231425Z 2315/2324 18006KT 9999 SCT060
ATIS : +41 22 417 40 88



MET'MAP, your aeronautical weather chart ! - Copyright ORBIFLY December 2007 - Disclaimer

ORBIFLY MET'MAP TEAM :

Programming & Development : Alexandra Zaïnal
Concept & original design : Baudouin d'Aumeries
Assistance for programming : Marc-Olivier Méhu
Technical & hardware support : Manuel Goepfert

Contact : metmap@orbifly.com




SOURCES & CREDITS :

   NOAA